Location: Monrovia
(34.7865°N, 86.7139°W)
Time: 21:47:36
(UTC+00:00)

Cosmos 1943 Rocket - Pass Details

Date: 14 July 2020
Orbit: 811 x 845 km, 71.0° (Epoch: 08 August)

Event Time Altitude Azimuth Distance (km) Brightness Sun altitude
Rises 04:53:09 0° 336° (NNW) 3,405 6.5 -31.9°
Reaches altitude 10° 04:55:37 10° 334° (NNW) 2,464 5.5 -32.0°
Enters shadow 04:59:54 51° 316° (NW) 1,042 2.8 -32.2°
